weather.gov     
National Weather Service

Regional Weather Roundup
NWS Homepage
This page is being discontinued on March 12, 2014.
The same data is available at this site. Please update your bookmarks.
Thank you, and we apologize for the inconvenience.
Please send an email to SR-SRH.Webmaster@noaa.gov with any concerns.


Current Version
Previous Version:    01  02  03  04  05  06  07  08  09  10  11  12  13  14  15  16  17  18  19  20  21  22  23  24  25  26  
[Printable]
027
ASUS46 KSEW 250710
RWRWA

WASHINGTON REGIONAL WEATHER ROUNDUP
NATIONAL WEATHER SERVICE SEATTLE WA
1200 AM PDT SAT OCT 25 2014

NOTE:"FAIR" INDICATES FEW OR NO CLOUDS BELOW 12,000 FEET WITH NO
SIGNIFICANT WEATHER AND/OR OBSTRUCTIONS TO VISIBILITY.

WAZ505-507>509-250800-
SEATTLE, TACOMA, EVERETT, AND VICINITY

CITY           SKY/WX    TMP DP  RH WIND       PRES   REMARKS
EVERETT        CLOUDY    51  45  79 E8        29.75F
BOEING FIELD   CLOUDY    54  48  80 CALM      29.74F
RENTON         CLOUDY    52  50  93 NW7       29.73F
SEATAC AIRPORT CLOUDY    52  48  86 N8        29.74F
JBLM-MCCHORD   CLOUDY    50  50  99 N2        29.72F
PUYALLUP       NOT AVBL
JBLM-FT LEWIS  LGT RAIN  51  50  99 N5        29.71F
TACOMA NARROWS CLOUDY    51  49  92 N13       29.73F
$$

WAZ001-503-506-510-514-515-250800-
NORTH INTERIOR

CITY           SKY/WX    TMP DP  RH WIND       PRES   REMARKS
BELLINGHAM     LGT RAIN  50  47  89 NE6       29.81F
FRIDAY HARBOR  LGT RAIN  50  47  89 N5        29.81F
EASTSOUND      LGT RAIN  48  48 100 CALM      29.79F
PORT ANGELES   LGT RAIN  50  48  93 MISG      29.77F
NAS WHIDBEY    LGT RAIN  52  48  86 NE5       29.79F
BURLINGTON     CLOUDY   N/A N/A N/A E10       29.81F
$$

WAZ020-022-039-040-504-511-512-250800-
SOUTHWEST INTERIOR

CITY           SKY/WX    TMP DP  RH WIND       PRES   REMARKS
SHELTON        LGT RAIN  50  48  93 N8        29.72F
OLYMPIA        CLOUDY    51  49  92 N9        29.72F
CHEHALIS       CLOUDY    52  52 100 N6        29.71F
KELSO          CLOUDY    52  46  82 CALM      29.72F
VANCOUVER      CLOUDY    51  50  96 CALM      29.68F
SCAPPOOSE, OR  CLOUDY    51  49  92 W6        29.68F
PORTLAND, OR   CLOUDY    51  51 100 W5        29.68F
$$

WAZ021-516-517-250800-
WASHINGTON COAST

CITY           SKY/WX    TMP DP  RH WIND       PRES   REMARKS
FORKS          LGT RAIN  49  48  97 NE8       29.68F FOG
HOQUIAM        LGT RAIN  51  49  92 NE18G26   29.66F
ASTORIA, OR    CLOUDY    56  50  80 VRB3      29.63F
$$

WAZ019-023-024-040-518-519-250800-
CASCADE MOUNTAINS AND COLUMBIA GORGE

CITY           SKY/WX    TMP DP  RH WIND       PRES   REMARKS
STAMPEDE PASS  NOT AVBL
TROUTDALE, OR  CLOUDY    56  48  74 E18G28    29.66F
THE DALLES, OR CLOUDY    52  50  93 CALM      29.84F
$$

WAZ026-027-041>044-520-521-250800-
EAST SLOPES

CITY           SKY/WX    TMP DP  RH WIND       PRES   REMARKS
OMAK           LGT RAIN  45  43  93 NW3       29.98F
WENATCHEE      CLOUDY    48  45  89 W6        29.94F
ELLENSBURG     CLOUDY    48  44  86 CALM      29.89F
YAKIMA         CLOUDY    48  46  93 W7        29.89F
$$

WAZ028-034-035-250800-
COLUMBIA BASIN

CITY           SKY/WX    TMP DP  RH WIND       PRES   REMARKS
EPHRATA        CLOUDY    50  47  89 N12       29.90F
MOSES LAKE     LGT RAIN  50  47  89 N13       29.90F
PASCO          CLOUDY    50  48  93 NW13      29.85F
HERMISTON, OR  CLOUDY    50  46  86 NE5       29.84F
$$

WAZ036>038-250800-
NORTHEAST WASHINGTON

CITY           SKY/WX    TMP DP  RH WIND       PRES   REMARKS
SPOKANE GEIGER CLOUDY    46  43  89 NE8       29.93F
SPOKANE FELTS  CLOUDY    49  44  83 CALM      29.94F
FAIRCHILD AFB  CLOUDY    46  43  90 NE10      29.93F
COEURDALENE,ID CLOUDY    46  41  81 N14       29.95F
DEER PARK      CLOUDY    47  42  83 N9        29.96F
$$

WAZ029>033-250800-
SOUTHEAST WASHINGTON

CITY           SKY/WX    TMP DP  RH WIND       PRES   REMARKS
PULLMAN        CLOUDY    48  43  82 E14       29.91F
LEWISTON, ID   CLOUDY    50  48  93 E5        29.90F
WALLA WALLA    FOG       49  48  97 S7        29.83F VSB<1/4
PENDLETON, OR  CLOUDY    47  46  97 NE5       29.82F FOG
$$




U.S. Dept. of Commerce
NOAA National Weather Service
1325 East West Highway
Silver Spring, MD 20910
E-mail: w-nws.webmaster@noaa.gov
Page last modified: May 16, 2007
NATIONAL WEATHER SERVICE: for Safety, for Work, for Fun - FOR LIFE